User: anonymous   Login
Location: ???????
(55.4362°N, 38.1183°E)
Time: 23:55:16
(UTC+00:00)
Language:

Meteor 1-27 - Orbit

View from above orbital plane
View from above orbital plane
View from above satellite
View from above satellite

Ground track
Ground track

The orbit data is extracted from the following two-line orbital elements,

1 09903U 77024A   21267.72347282 -.00000062  00000-0 -43218-4 0  9996
2 09903  81.2507   9.3848 0039065 199.9334 160.0312 14.08257341284517
Epoch (UTC): 24 September 2021 17:21:48
Eccentricity: 0.0039065
inclination: 81.2507°
perigee height: 837 km
apogee height: 893 km
right ascension of ascending node: 9.3848°
argument of perigee: 199.9334°
revolutions per day: 14.08257341
mean anomaly at epoch: 160.0312°
orbit number at epoch: 28451

The dashed part of the orbit path shows where the satellite is in the earth's shadow,  

DLR